AAL3323 KORD-KLAS

Flight info

Callsign AAL3323
Flight time N/A
Altitude 36000
Route MYKIE MONNY JORDY TODDO PECKS DVV J60 DBL GGAPP CHOWW4
Aircraft B738/M-SDE2E3FGHIRWXY/LB1

Departure

Time N/A
Airport Chicago O'Hare International Airport (KORD)

Arrival

Time 2026-05-06 09:14
Airport Harry Reid International Airport (KLAS)
Time Latitude Longitude Altitude Speed Heading
2026-05-06 07:03 41.33768 -98.57689 36096 ft 389 kts 257°
2026-05-06 07:03 41.32558 -98.64719 36096 ft 387 kts 257°
2026-05-06 07:04 41.31348 -98.71716 36090 ft 390 kts 257°
2026-05-06 07:04 41.30151 -98.78754 36093 ft 390 kts 257°
2026-05-06 07:05 41.28948 -98.85699 36101 ft 384 kts 257°
2026-05-06 07:05 41.27736 -98.92603 36099 ft 383 kts 257°
2026-05-06 07:06 41.26510 -98.99533 36097 ft 388 kts 257°
2026-05-06 07:06 41.25266 -99.06546 36099 ft 387 kts 257°
2026-05-06 07:07 41.24038 -99.13460 36101 ft 385 kts 257°
2026-05-06 07:07 41.22653 -99.20351 36101 ft 389 kts 254°
2026-05-06 07:08 41.21121 -99.27224 36105 ft 389 kts 254°
2026-05-06 07:08 41.19594 -99.34078 36107 ft 387 kts 254°
2026-05-06 07:09 41.18070 -99.40918 36114 ft 388 kts 254°
2026-05-06 07:09 41.16533 -99.47803 36119 ft 389 kts 254°
2026-05-06 07:10 41.14989 -99.54708 36125 ft 387 kts 254°
2026-05-06 07:10 41.13474 -99.61552 36125 ft 387 kts 255°
2026-05-06 07:11 41.11974 -99.68398 36130 ft 386 kts 255°
2026-05-06 07:11 41.10839 -99.73542 36132 ft 385 kts 255°
2026-05-06 07:12 41.09333 -99.80326 36136 ft 384 kts 255°
2026-05-06 07:12 41.07821 -99.87103 36136 ft 384 kts 255°
2026-05-06 07:13 41.06302 -99.93882 36136 ft 384 kts 255°
2026-05-06 07:13 41.04776 -100.00661 36138 ft 383 kts 255°
2026-05-06 07:14 41.03240 -100.07464 36140 ft 383 kts 255°
2026-05-06 07:14 41.01712 -100.14203 36140 ft 383 kts 254°
2026-05-06 07:15 41.00178 -100.20950 36141 ft 383 kts 254°
2026-05-06 07:15 40.98644 -100.27679 36141 ft 383 kts 254°
2026-05-06 07:16 40.97103 -100.34412 36141 ft 383 kts 254°
2026-05-06 07:16 40.95560 -100.41135 36141 ft 383 kts 254°
2026-05-06 07:17 40.94004 -100.47897 36140 ft 382 kts 254°
2026-05-06 07:17 40.92452 -100.54618 36140 ft 382 kts 254°
2026-05-06 07:18 40.90901 -100.61315 36140 ft 382 kts 254°
2026-05-06 07:18 40.89346 -100.68011 36138 ft 381 kts 254°
2026-05-06 07:19 40.87789 -100.74695 36138 ft 380 kts 254°
2026-05-06 07:19 40.86231 -100.81363 36134 ft 381 kts 254°
2026-05-06 07:20 40.84665 -100.88043 36132 ft 382 kts 254°
2026-05-06 07:20 40.83093 -100.94734 36129 ft 380 kts 254°
2026-05-06 07:21 40.81515 -101.01427 36128 ft 380 kts 254°
2026-05-06 07:21 40.79942 -101.08084 36122 ft 381 kts 254°
2026-05-06 07:22 40.78361 -101.14753 36121 ft 381 kts 254°
2026-05-06 07:22 40.76783 -101.21386 36119 ft 378 kts 254°
2026-05-06 07:23 40.75211 -101.27980 36115 ft 379 kts 254°
2026-05-06 07:23 40.73614 -101.34658 36114 ft 380 kts 254°
2026-05-06 07:24 40.72032 -101.41256 36113 ft 379 kts 254°
2026-05-06 07:24 40.70432 -101.47907 36113 ft 379 kts 254°
2026-05-06 07:25 40.68837 -101.54519 36113 ft 380 kts 254°
2026-05-06 07:25 40.67235 -101.61143 36113 ft 380 kts 254°
2026-05-06 07:26 40.65636 -101.67734 36113 ft 378 kts 254°
2026-05-06 07:26 40.64032 -101.74329 36116 ft 379 kts 253°
2026-05-06 07:27 40.62419 -101.80940 36118 ft 380 kts 253°
2026-05-06 07:27 40.60796 -101.87575 36119 ft 378 kts 254°
2026-05-06 07:28 40.59185 -101.94141 36116 ft 377 kts 254°
2026-05-06 07:28 40.56766 -102.03967 36128 ft 377 kts 253°
2026-05-06 07:29 40.55148 -102.10516 36130 ft 377 kts 253°
2026-05-06 07:29 40.53527 -102.17061 36130 ft 377 kts 253°
2026-05-06 07:30 40.51893 -102.23639 36136 ft 377 kts 253°
2026-05-06 07:30 40.50267 -102.30168 36139 ft 377 kts 253°
2026-05-06 07:31 40.48635 -102.36700 36138 ft 377 kts 253°
2026-05-06 07:31 40.47003 -102.43217 36135 ft 377 kts 253°
2026-05-06 07:32 40.45363 -102.49746 36129 ft 377 kts 253°
2026-05-06 07:32 40.43712 -102.56305 36124 ft 382 kts 253°
2026-05-06 07:33 40.42020 -102.63005 36131 ft 392 kts 253°
2026-05-06 07:33 40.40291 -102.69830 36126 ft 392 kts 253°
2026-05-06 07:34 40.38573 -102.76594 36123 ft 391 kts 253°
2026-05-06 07:34 40.36854 -102.83347 36122 ft 391 kts 253°
2026-05-06 07:35 40.35133 -102.90086 36121 ft 391 kts 253°
2026-05-06 07:35 40.33397 -102.96863 36115 ft 390 kts 253°
2026-05-06 07:36 40.31667 -103.03602 36114 ft 390 kts 253°
2026-05-06 07:36 40.29938 -103.10314 36114 ft 389 kts 253°
2026-05-06 07:37 40.28207 -103.17019 36112 ft 390 kts 253°
2026-05-06 07:37 40.26464 -103.23749 36112 ft 390 kts 253°
2026-05-06 07:38 40.24726 -103.30443 36112 ft 388 kts 252°
2026-05-06 07:38 40.22979 -103.37156 36112 ft 387 kts 252°
2026-05-06 07:39 40.21238 -103.43825 36112 ft 389 kts 252°
2026-05-06 07:39 40.19489 -103.50505 36112 ft 388 kts 252°
2026-05-06 07:40 40.18036 -103.56043 36112 ft 388 kts 252°
2026-05-06 07:40 40.16230 -103.62909 36114 ft 390 kts 252°
2026-05-06 07:41 40.14462 -103.69610 36114 ft 391 kts 252°
2026-05-06 07:41 40.12689 -103.76314 36114 ft 390 kts 252°
2026-05-06 07:42 40.10902 -103.83053 36115 ft 391 kts 252°
2026-05-06 07:42 40.09418 -103.88633 36122 ft 393 kts 252°
2026-05-06 07:43 40.07323 -103.96492 36119 ft 393 kts 253°
2026-05-06 07:43 40.05826 -104.02093 36112 ft 393 kts 253°
2026-05-06 07:44 40.04024 -104.08820 36112 ft 394 kts 253°
2026-05-06 07:44 40.02203 -104.15596 36111 ft 394 kts 252°
2026-05-06 07:45 40.00379 -104.22370 36107 ft 394 kts 252°
2026-05-06 07:45 39.98587 -104.29098 36107 ft 394 kts 252°
2026-05-06 07:46 39.96771 -104.35821 36110 ft 394 kts 252°
2026-05-06 07:46 39.94941 -104.42538 36109 ft 394 kts 252°
2026-05-06 07:47 39.93092 -104.49299 36108 ft 394 kts 252°
2026-05-06 07:47 39.91249 -104.56018 36109 ft 396 kts 253°
2026-05-06 07:48 39.89718 -104.61612 36109 ft 397 kts 253°
2026-05-06 07:48 39.88258 -104.68482 36107 ft 393 kts 258°
2026-05-06 07:49 39.86966 -104.75368 36106 ft 393 kts 258°
2026-05-06 07:49 39.85645 -104.82320 36098 ft 393 kts 257°
2026-05-06 07:50 39.84322 -104.89198 36092 ft 393 kts 257°
2026-05-06 07:50 39.82986 -104.96093 36089 ft 393 kts 257°
2026-05-06 07:51 39.81647 -105.02975 36094 ft 393 kts 257°
2026-05-06 07:51 39.80321 -105.09871 36104 ft 394 kts 257°
2026-05-06 07:52 39.78988 -105.16824 36100 ft 394 kts 257°
2026-05-06 07:52 39.77652 -105.23725 36095 ft 395 kts 258°
2026-05-06 07:53 39.76292 -105.30677 36080 ft 400 kts 259°
2026-05-06 07:53 39.74921 -105.37674 36072 ft 401 kts 259°
2026-05-06 07:54 39.73537 -105.44703 36066 ft 403 kts 260°
2026-05-06 07:54 39.72132 -105.51788 36052 ft 411 kts 261°
2026-05-06 07:55 39.70700 -105.59007 36046 ft 414 kts 261°
2026-05-06 07:55 39.69262 -105.66229 36049 ft 410 kts 261°
2026-05-06 07:56 39.67829 -105.73383 36041 ft 412 kts 261°
2026-05-06 07:56 39.66376 -105.80624 36035 ft 419 kts 261°
2026-05-06 07:57 39.64904 -105.87929 36036 ft 418 kts 261°
2026-05-06 07:57 39.63515 -105.94814 36046 ft 413 kts 259°
2026-05-06 07:58 39.62082 -106.01889 36022 ft 400 kts 258°
2026-05-06 07:58 39.60663 -106.08845 36018 ft 397 kts 258°
2026-05-06 07:59 39.59239 -106.15806 36017 ft 401 kts 259°
2026-05-06 07:59 39.57801 -106.22814 36011 ft 406 kts 259°
2026-05-06 08:00 39.56347 -106.29890 36008 ft 407 kts 259°
2026-05-06 08:00 39.54883 -106.36986 36010 ft 409 kts 259°
2026-05-06 08:01 39.53419 -106.44063 36007 ft 404 kts 259°
2026-05-06 08:01 39.51966 -106.51120 35998 ft 403 kts 259°
2026-05-06 08:02 39.50523 -106.58119 35997 ft 404 kts 259°
2026-05-06 08:02 39.49056 -106.65135 35997 ft 404 kts 258°
2026-05-06 08:03 39.47584 -106.72116 35989 ft 402 kts 258°
2026-05-06 08:03 39.46108 -106.79147 35987 ft 401 kts 255°
2026-05-06 08:04 39.44640 -106.86023 35982 ft 395 kts 255°
2026-05-06 08:04 39.42884 -106.92745 35982 ft 397 kts 249°
2026-05-06 08:05 39.40698 -106.99295 35981 ft 396 kts 246°
2026-05-06 08:05 39.38462 -107.05923 35960 ft 409 kts 240°
2026-05-06 08:06 39.36128 -107.12777 35985 ft 424 kts 243°
2026-05-06 08:06 39.33747 -107.19836 35988 ft 423 kts 240°
2026-05-06 08:07 39.32578 -107.23254 35984 ft 411 kts 246°
2026-05-06 08:07 39.31425 -107.26585 35974 ft 404 kts 247°
2026-05-06 08:07 39.29211 -107.33151 35968 ft 398 kts 249°
2026-05-06 08:08 39.27004 -107.39736 35965 ft 404 kts 250°
2026-05-06 08:08 39.24745 -107.46454 35965 ft 412 kts 251°
2026-05-06 08:09 39.22427 -107.53313 35964 ft 416 kts 251°
2026-05-06 08:09 39.20110 -107.60145 35963 ft 416 kts 251°
2026-05-06 08:10 39.17785 -107.66974 35965 ft 419 kts 251°
2026-05-06 08:10 39.15444 -107.73835 35964 ft 418 kts 251°
2026-05-06 08:11 39.13128 -107.80601 35964 ft 410 kts 250°
2026-05-06 08:11 39.10847 -107.87267 35955 ft 402 kts 249°
2026-05-06 08:12 39.08570 -107.93877 35947 ft 402 kts 248°
2026-05-06 08:12 39.06294 -108.00468 35941 ft 405 kts 248°
2026-05-06 08:13 39.03986 -108.07118 35923 ft 414 kts 250°
2026-05-06 08:13 39.01615 -108.13968 35944 ft 423 kts 250°
2026-05-06 08:14 38.99269 -108.20779 35935 ft 410 kts 247°
2026-05-06 08:14 38.96957 -108.27406 35935 ft 400 kts 246°
2026-05-06 08:15 38.94665 -108.33933 35923 ft 404 kts 249°
2026-05-06 08:15 38.92343 -108.40574 35919 ft 411 kts 249°
2026-05-06 08:16 38.90009 -108.47239 35920 ft 408 kts 248°
2026-05-06 08:16 38.87693 -108.53824 35914 ft 406 kts 249°
2026-05-06 08:17 38.85341 -108.60507 35912 ft 411 kts 249°
2026-05-06 08:17 38.83004 -108.67152 35922 ft 407 kts 248°
2026-05-06 08:18 38.80682 -108.73708 35926 ft 403 kts 248°
2026-05-06 08:18 38.78358 -108.80258 35916 ft 406 kts 248°
2026-05-06 08:19 38.76014 -108.86853 35910 ft 408 kts 248°
2026-05-06 08:19 38.73673 -108.93493 35904 ft 409 kts 244°
2026-05-06 08:20 38.71252 -109.00249 35868 ft 423 kts 247°
2026-05-06 08:20 38.68754 -109.07188 35888 ft 437 kts 249°
2026-05-06 08:21 38.66194 -109.14361 35889 ft 450 kts 244°
2026-05-06 08:21 38.63545 -109.21728 35896 ft 463 kts 243°
2026-05-06 08:22 38.60829 -109.29206 35889 ft 464 kts 248°
2026-05-06 08:22 38.58147 -109.36642 35878 ft 458 kts 247°
2026-05-06 08:23 38.55475 -109.44143 35892 ft 465 kts 244°
2026-05-06 08:23 38.54118 -109.47852 35908 ft 452 kts 244°
2026-05-06 08:23 38.52792 -109.51391 35888 ft 435 kts 246°
2026-05-06 08:24 38.51540 -109.54827 35877 ft 423 kts 247°
2026-05-06 08:24 38.50315 -109.58206 35878 ft 416 kts 244°
2026-05-06 08:24 38.47883 -109.64864 35858 ft 426 kts 246°
2026-05-06 08:25 38.45319 -109.71923 35938 ft 431 kts 244°
2026-05-06 08:25 38.43229 -109.77603 35904 ft 417 kts 245°
2026-05-06 08:26 38.40387 -109.85344 35896 ft 409 kts 246°
2026-05-06 08:26 38.38379 -109.90831 35901 ft 410 kts 244°
2026-05-06 08:27 38.35916 -109.97519 35879 ft 425 kts 243°
2026-05-06 08:27 38.33361 -110.04418 35905 ft 439 kts 244°
2026-05-06 08:28 38.30715 -110.11545 35920 ft 452 kts 244°
2026-05-06 08:28 38.27987 -110.18861 35931 ft 464 kts 246°
2026-05-06 08:29 38.25199 -110.26356 35925 ft 465 kts 247°
2026-05-06 08:29 38.22446 -110.33743 35926 ft 461 kts 247°
2026-05-06 08:30 38.19704 -110.41081 35930 ft 459 kts 248°
2026-05-06 08:30 38.16975 -110.48364 35933 ft 457 kts 248°
2026-05-06 08:31 38.14239 -110.55647 35928 ft 458 kts 247°
2026-05-06 08:31 38.11604 -110.62673 35923 ft 468 kts 246°
2026-05-06 08:32 38.08785 -110.70095 35927 ft 464 kts 247°
2026-05-06 08:32 38.06023 -110.77426 35920 ft 462 kts 246°
2026-05-06 08:33 38.03217 -110.84824 35923 ft 470 kts 245°
2026-05-06 08:33 38.00371 -110.92261 35925 ft 466 kts 247°
2026-05-06 08:34 37.96190 -111.03275 35952 ft 454 kts 243°
2026-05-06 08:34 37.94826 -111.06773 35926 ft 434 kts 244°
2026-05-06 08:35 37.93537 -111.10149 35883 ft 421 kts 243°
2026-05-06 08:35 37.90928 -111.16974 35890 ft 435 kts 243°
2026-05-06 08:36 37.88254 -111.23956 35914 ft 449 kts 243°
2026-05-06 08:36 37.85542 -111.31022 35932 ft 438 kts 240°
2026-05-06 08:36 37.84214 -111.34425 35934 ft 425 kts 246°
2026-05-06 08:37 37.82918 -111.37756 35950 ft 423 kts 247°
2026-05-06 08:37 37.80332 -111.44448 35970 ft 426 kts 248°
2026-05-06 08:38 37.77735 -111.51154 35971 ft 423 kts 247°
2026-05-06 08:38 37.75154 -111.57796 35977 ft 417 kts 247°
2026-05-06 08:39 37.72586 -111.64392 36010 ft 422 kts 247°
2026-05-06 08:39 37.69976 -111.71083 36026 ft 426 kts 247°
2026-05-06 08:40 37.67361 -111.77781 36040 ft 426 kts 248°
2026-05-06 08:40 37.64744 -111.84515 36058 ft 430 kts 248°
2026-05-06 08:41 37.62080 -111.91299 36071 ft 433 kts 247°
2026-05-06 08:41 37.59395 -111.98102 36056 ft 428 kts 247°
2026-05-06 08:42 37.56752 -112.04783 36050 ft 427 kts 247°
2026-05-06 08:42 37.54094 -112.11491 36067 ft 432 kts 247°
2026-05-06 08:43 37.51078 -112.18072 36070 ft 436 kts 241°
2026-05-06 08:43 37.47711 -112.24437 36067 ft 433 kts 240°
2026-05-06 08:44 37.44419 -112.30706 36071 ft 423 kts 239°
2026-05-06 08:44 37.41185 -112.36861 36057 ft 425 kts 240°
2026-05-06 08:45 37.37946 -112.43141 36053 ft 431 kts 241°
2026-05-06 08:45 37.34681 -112.49425 36049 ft 430 kts 240°
2026-05-06 08:46 37.31447 -112.55629 36057 ft 418 kts 237°
2026-05-06 08:46 37.28285 -112.61651 36055 ft 410 kts 237°
2026-05-06 08:47 37.25103 -112.67690 36048 ft 418 kts 240°
2026-05-06 08:47 37.21862 -112.73874 36054 ft 430 kts 234°
2026-05-06 08:48 37.18603 -112.80088 36041 ft 424 kts 233°
2026-05-06 08:48 37.15332 -112.86233 36036 ft 425 kts 235°
2026-05-06 08:49 37.12018 -112.92506 35591 ft 435 kts 236°
2026-05-06 08:49 37.10350 -112.95642 34718 ft 444 kts 237°
2026-05-06 08:49 37.08624 -112.98893 34242 ft 442 kts 236°
2026-05-06 08:49 37.06963 -113.02063 34222 ft 427 kts 234°
2026-05-06 08:50 37.05350 -113.05087 34199 ft 413 kts 234°
2026-05-06 08:50 37.03780 -113.08033 34100 ft 401 kts 234°
2026-05-06 08:50 37.02250 -113.10916 33580 ft 401 kts 238°
2026-05-06 08:50 37.00681 -113.13884 32504 ft 416 kts 238°
2026-05-06 08:51 36.99058 -113.16955 31987 ft 417 kts 239°
2026-05-06 08:51 36.97487 -113.19946 31782 ft 408 kts 239°
2026-05-06 08:51 36.95932 -113.22886 31368 ft 406 kts 239°
2026-05-06 08:51 36.94381 -113.25805 30982 ft 403 kts 238°
2026-05-06 08:52 36.92833 -113.28709 30641 ft 399 kts 238°
2026-05-06 08:52 36.91298 -113.31578 30285 ft 396 kts 238°
2026-05-06 08:52 36.89782 -113.34410 29943 ft 392 kts 238°
2026-05-06 08:52 36.88270 -113.37228 29525 ft 391 kts 238°
2026-05-06 08:53 36.86762 -113.40037 29073 ft 390 kts 239°
2026-05-06 08:53 36.85247 -113.42857 28617 ft 390 kts 239°
2026-05-06 08:53 36.83737 -113.45665 28111 ft 391 kts 239°
2026-05-06 08:53 36.82202 -113.48520 27572 ft 393 kts 240°
2026-05-06 08:54 36.80698 -113.51329 27416 ft 382 kts 239°
2026-05-06 08:54 36.79244 -113.54033 27345 ft 370 kts 239°
2026-05-06 08:54 36.77837 -113.56647 27214 ft 360 kts 239°
2026-05-06 08:54 36.76429 -113.59277 26280 ft 376 kts 239°
2026-05-06 08:55 36.74929 -113.62078 25132 ft 400 kts 240°
2026-05-06 08:55 36.73368 -113.65002 24447 ft 408 kts 240°
2026-05-06 08:55 36.71808 -113.67910 24111 ft 405 kts 239°
2026-05-06 08:55 36.70241 -113.70825 23701 ft 404 kts 239°
2026-05-06 08:56 36.68669 -113.73738 23336 ft 402 kts 239°
2026-05-06 08:56 36.67117 -113.76611 23024 ft 398 kts 239°
2026-05-06 08:56 36.65581 -113.79450 22686 ft 396 kts 239°
2026-05-06 08:56 36.64044 -113.82290 22339 ft 393 kts 239°
2026-05-06 08:57 36.62502 -113.85136 21995 ft 391 kts 239°
2026-05-06 08:57 36.60991 -113.87923 21655 ft 389 kts 239°
2026-05-06 08:57 36.59484 -113.90703 21317 ft 386 kts 239°
2026-05-06 08:57 36.57960 -113.93440 20952 ft 386 kts 237°
2026-05-06 08:58 36.56343 -113.96097 20630 ft 384 kts 234°
2026-05-06 08:58 36.54710 -113.98687 20313 ft 381 kts 234°
2026-05-06 08:58 36.53084 -114.01271 19986 ft 379 kts 234°
2026-05-06 08:58 36.51467 -114.03850 19659 ft 376 kts 234°
2026-05-06 08:59 36.49868 -114.06406 19341 ft 374 kts 234°
2026-05-06 08:59 36.48282 -114.08942 19023 ft 372 kts 234°
2026-05-06 08:59 36.46704 -114.11468 18698 ft 370 kts 234°
2026-05-06 08:59 36.45132 -114.13988 18359 ft 368 kts 234°
2026-05-06 09:00 36.43568 -114.16493 18023 ft 367 kts 233°
2026-05-06 09:00 36.41996 -114.19010 17741 ft 362 kts 233°
2026-05-06 09:00 36.40472 -114.21449 17324 ft 357 kts 233°
2026-05-06 09:00 36.38954 -114.23870 16871 ft 354 kts 233°
2026-05-06 09:01 36.37445 -114.26248 16462 ft 349 kts 232°
2026-05-06 09:01 36.35947 -114.28603 16052 ft 345 kts 232°
2026-05-06 09:01 36.34474 -114.30913 15630 ft 341 kts 232°
2026-05-06 09:01 36.33015 -114.33198 15219 ft 336 kts 232°
2026-05-06 09:02 36.31569 -114.35461 14804 ft 332 kts 232°
2026-05-06 09:02 36.30143 -114.37690 14393 ft 328 kts 232°
2026-05-06 09:02 36.28734 -114.39891 13978 ft 325 kts 232°
2026-05-06 09:02 36.27344 -114.42062 13537 ft 322 kts 232°
2026-05-06 09:03 36.25953 -114.44234 13047 ft 321 kts 232°
2026-05-06 09:03 36.24561 -114.46386 12578 ft 320 kts 232°
2026-05-06 09:03 36.23169 -114.48524 12188 ft 316 kts 232°
2026-05-06 09:03 36.21794 -114.50630 11927 ft 308 kts 232°
2026-05-06 09:04 36.20461 -114.52672 11562 ft 304 kts 232°
2026-05-06 09:04 36.19146 -114.54688 11156 ft 302 kts 232°
2026-05-06 09:04 36.17822 -114.56713 10721 ft 301 kts 232°
2026-05-06 09:04 36.16518 -114.58708 10301 ft 299 kts 233°
2026-05-06 09:05 36.15193 -114.60699 9877 ft 298 kts 231°
2026-05-06 09:05 36.13854 -114.62681 9486 ft 295 kts 233°
2026-05-06 09:05 36.12593 -114.64652 9126 ft 291 kts 234°
2026-05-06 09:05 36.11357 -114.66565 8962 ft 279 kts 234°
2026-05-06 09:06 36.10166 -114.68394 8868 ft 266 kts 234°
2026-05-06 09:06 36.09034 -114.70124 8701 ft 256 kts 234°
2026-05-06 09:06 36.07966 -114.71856 8408 ft 250 kts 241°
2026-05-06 09:06 36.07257 -114.73754 8184 ft 236 kts 260°
2026-05-06 09:07 36.07149 -114.75696 8077 ft 220 kts 275°
2026-05-06 09:07 36.07238 -114.77566 7774 ft 217 kts 274°
2026-05-06 09:07 36.07283 -114.79444 7280 ft 224 kts 274°
2026-05-06 09:07 36.07315 -114.81396 6821 ft 228 kts 274°
2026-05-06 09:08 36.07346 -114.83344 6506 ft 227 kts 274°
2026-05-06 09:08 36.07355 -114.85279 6216 ft 223 kts 273°
2026-05-06 09:08 36.07358 -114.87168 5957 ft 221 kts 273°
2026-05-06 09:08 36.07360 -114.89034 5716 ft 214 kts 272°
2026-05-06 09:09 36.07362 -114.90846 5445 ft 207 kts 272°
2026-05-06 09:09 36.07363 -114.92592 5184 ft 200 kts 272°
2026-05-06 09:09 36.07364 -114.94275 4926 ft 193 kts 272°
2026-05-06 09:09 36.07366 -114.95902 4634 ft 187 kts 271°
2026-05-06 09:10 36.07368 -114.97478 4412 ft 179 kts 270°
2026-05-06 09:10 36.07370 -114.98977 4194 ft 175 kts 268°
2026-05-06 09:10 36.07367 -115.00471 3981 ft 172 kts 269°
2026-05-06 09:10 36.07370 -115.01952 3695 ft 171 kts 269°
2026-05-06 09:11 36.07371 -115.03401 3535 ft 170 kts 268°
2026-05-06 09:11 36.07371 -115.04274 3423 ft 169 kts 268°
2026-05-06 09:12 36.07372 -115.04862 3340 ft 168 kts 268°
2026-05-06 09:12 36.07372 -115.06292 3138 ft 166 kts 268°
2026-05-06 09:12 36.07371 -115.07703 2971 ft 160 kts 268°
2026-05-06 09:12 36.07371 -115.09066 2803 ft 154 kts 268°
2026-05-06 09:13 36.07370 -115.10381 2582 ft 153 kts 268°
2026-05-06 09:13 36.07369 -115.11673 2392 ft 152 kts 269°
2026-05-06 09:13 36.07360 -115.12978 2227 ft 151 kts 268°
2026-05-06 09:13 36.07359 -115.14161 2191 ft 122 kts 270°
2026-05-06 09:14 36.07361 -115.14970 2189 ft 61 kts 270°
2026-05-06 09:14 36.07363 -115.15352 2189 ft 38 kts 270°
2026-05-06 09:14 36.07410 -115.15564 2189 ft 20 kts
2026-05-06 09:14 36.07520 -115.15531 2189 ft 8 kts 65°
2026-05-06 09:15 36.07511 -115.15478 2189 ft 8 kts 106°
2026-05-06 09:15 36.07490 -115.15389 2189 ft 11 kts 106°
2026-05-06 09:15 36.07481 -115.15300 2189 ft 10 kts 85°
2026-05-06 09:15 36.07487 -115.15222 2189 ft 9 kts 85°
2026-05-06 09:16 36.07501 -115.15148 2189 ft 10 kts 53°
2026-05-06 09:16 36.07571 -115.15142 2189 ft 12 kts 349°
2026-05-06 09:16 36.07664 -115.15159 2189 ft 11 kts 357°
2026-05-06 09:16 36.07755 -115.15148 2189 ft 15 kts 14°
2026-05-06 09:17 36.07859 -115.15093 2189 ft 17 kts 53°
2026-05-06 09:17 36.07935 -115.14962 2189 ft 20 kts 54°
2026-05-06 09:17 36.08019 -115.14817 2189 ft 18 kts 54°
2026-05-06 09:17 36.08056 -115.14754 2189 ft 0 kts 54°